Flag for U.S.A. Weather past 2 weeks in South Bend, Indiana, U.S.A.

Now
41 °F

Clear.


Feels Like: 38 °F
Forecast: 41 / 73 °F
Wind: 5 mph from Southeast

Location: Michiana Regional Airport


UV Index: 5 (Moderate)

Visibility: 10 mi


Pressure: 30.27 "Hg

Humidity: 62%

Dew point: 29 °F

Location of South BendLocation

Historic Weather in South Bend

°F

South Bend temperature yesterday

Maximum temperature yesterday: 64 °F (at 5:54 PM)
Minimum temperature yesterday: 34 °F (at 1:54 AM)
Average temperature yesterday: 49 °F

Past Weeks' High & Low Weather Summary

 TemperatureHumidityPressure
High76 °F (Apr 12, 5:54 PM)90% (Apr 11, 3:54 AM)30.42 "Hg (Apr 11, 3:54 AM)
Low27 °F (Apr 16, 3:54 AM)16% (Apr 11, 3:54 PM)29.40 "Hg (Apr 14, 5:54 AM)
Average48 °F55%30.01 "Hg
* Reported Apr 5 5:54 AM — Apr 20 5:54 AM, South Bend, Weather by CustomWeather, © 2014

Note: Actual official high and low records may vary slightly from our data, if they occured in-between our weather recording intervals... More about our weather records

Advertising

Historic Weather Conditions — Data for Previous 24 hours

 ConditionsComfort  
Time TempWeatherWind HumidityBarometerVisibility
5:54 AM
Apr 20
41 °FClear.7 mph60%30.28 "Hg10 mi
4:54 AM42 °FClear.9 mph57%30.28 "Hg10 mi
3:54 AM44 °FClear.7 mph51%30.29 "Hg10 mi
1:54 AM47 °FClear.9 mph44%30.30 "Hg10 mi
12:54 AM49 °FClear.13 mph39%30.31 "Hg10 mi
11:54 PM
Apr 19
50 °FClear.9 mph41%30.32 "Hg10 mi
10:54 PM53 °FClear.13 mph39%30.32 "Hg10 mi
9:54 PM56 °FClear.12 mph40%30.32 "Hg10 mi
8:54 PM59 °FSunny.9 mph38%30.29 "Hg10 mi
7:54 PM61 °FSunny.10 mph35%30.29 "Hg10 mi
6:54 PM63 °FSunny.9 mph34%30.29 "Hg10 mi
5:54 PM64 °FSunny.9 mph33%30.29 "Hg10 mi
4:54 PM63 °FSunny.12 mph34%30.31 "Hg10 mi
3:54 PM62 °FSunny.13 mph35%30.34 "Hg10 mi
1:54 PM60 °FSunny.15 mph41%30.37 "Hg10 mi
12:54 PM57 °FSunny.8 mph46%30.39 "Hg10 mi
11:54 AM54 °FSunny.14 mph51%30.40 "Hg10 mi
10:54 AM50 °FSunny.13 mph57%30.42 "Hg10 mi
9:54 AM47 °FSunny.15 mph64%30.42 "Hg10 mi
8:54 AM43 °FSunny.8 mph71%30.42 "Hg10 mi
7:54 AM38 °FClear.6 mph79%30.41 "Hg10 mi
Weather by CustomWeather, © 2014

See weather overview